www.pogodaiklimat.ru

Погода и климат >> Архив погоды >> Россия >> Ростовская область >> Ростов-на-Дону


АРХИВ ПОГОДЫ в Ростове-на-Дону

Время (UTC), дата Ветер
(напр.,м/с)
 
Видим.   Явления Облачность Т
(С)
Тd
(С)
f
(%)
Тe
(С)
Тes
(С)
Комфортность P
(гПа)
Po
(гПа)
Тmin
(С)
Tmax
(С)
R
(мм)
R24
(мм)
S
(см)
06 23.04 Ю 5 7000 м дымка 10/4 500 м
[Sc Ac und]
+6.3 +3.6 83 +2 +3 очень
холодно
1011.9 1002.8
09 23.04 В 3 4000 м слабый ливневой дождь 10/5 1000 м
[Cb calv Ac und]
+6.6 +3.4 80 +4 +5 очень
холодно
1008.7 999.6
12 23.04 СВ 6
{10}
3300 м слабый ливневой дождь 10/5 200 м
[Cb calv As op]
+5.5 +4.0 90 0 +1 очень
холодно
1005.3 996.2
15 23.04 СВ 5
{12}
4200 м слабый ливневой дождь 10/8 200 м
[Cb calv As op]
+4.6 +3.3 91 -0 -0 очень
холодно
1004.4 995.3 +7.2 19
18 23.04 СВ 7-12
{13}
1600 м ливневой дождь 10/8 240 м
[Cb calv As op]
+4.5 +3.3 92 -1 -1 очень
холодно
1002.0 992.9
21 23.04 С 5
{12}
5000 м слабый ливневой дождь 10/8 150 м
[Cb calv As op]
+4.6 +3.7 94 -0 -0 очень
холодно
1000.5 991.4
00 24.04 З 5
{15}
5000 м слабый ливневой дождь 10/8 240 м
[Cb calv As op]
+2.8 +1.7 92 -3 -3 очень
холодно
1004.0 994.8
03 24.04 З 4 7000 м слабый ливневой дождь 10/6 240 м
[Cb calv Ac und]
+4.9 +3.9 93 +1 +1 очень
холодно
1006.8 997.7 +2.5 14
06 24.04 З 5
{10}
10 км {ливн. осадки} 8/4 600 м
[Cb calv Ac trans]
+9.0 +5.5 79 +6 +7 прохладно 1009.7 1000.7
09 24.04 ЮЗ 6
{12}
3300 м слабый ливневой дождь 9/6 240 м
[Cb calv Ac trans]
+7.4 +5.8 90 +3 +4 очень
холодно
1010.9 1001.8
12 24.04 ЮЗ 5
{12}
7000 м слабый ливневой дождь 10/6 600 м
[Cb calv Ac und]
+7.5 +5.9 90 +4 +4 очень
холодно
1009.2 1000.1
15 24.04 ЮЗ 10-14
{12}
5000 м слабый ливневой дождь 10/8 210 м
[Cb calv Ac und]
+5.0 +3.8 92 -2 -2 очень
холодно
1008.0 998.9 +10.9 8
18 24.04 З 8-12
{18}
1000 м ливневой дождь со снегом 10/8 120 м
[Cb calv Ac und]
+1.0 +0.1 94 -6 -6 очень
холодно
1013.0 1003.7
21 24.04 З 6-11
{14}
6000 м слабый ливневой дождь 10/8 300 м
[Cb calv Ac und]
+5.4 +3.0 85 0 0 очень
холодно
1016.7 1007.5
00 25.04 З 4
{14}
8000 м слабый ливневой дождь 10/5 300 м
[Cb calv Ac und]
+5.4 +2.6 82 +1 +1 холодно 1018.7 1009.5
03 25.04 З 3 10 км {ливн. осадки} 5/3 1000 м
[Cb calv Ac trans]
+3.9 +1.7 86 0 0 очень
холодно
1021.0 1011.7 +1.0 7
06 25.04 З 4 10 км {ливн. осадки} 5/1 1000 м
[Cb calv Ac trans Ci fib]
+8.0 +3.0 71 +5 +9 холодно 1023.7 1014.5
09 25.04 З 5 10 км 4/4
[Cu med, cong]
+11.5 +1.1 49 +9 +14 прохладно 1025.3 1016.2
12 25.04 З 7-11
{12}
10 км 5/3 600 м
[Cb calv Ac trans Ci fib]
+12.5 -2.4 35 +10 +12 холодно 1025.9 1016.8
15 25.04 З 7-10
{11}
10 км 4/1 1000 м
[Cu hum Ac trans Ci fib]
+10.7 -1.0 44 +8 +8 холодно 1026.8 1017.7 +13.1
18 25.04 З 4
{11}
8000 м 3/0
[Ac trans]
+8.3 +2.2 65 +5 +5 холодно 1028.4 1019.2
21 25.04 З 3 8000 м ясно +6.4 +2.7 77 +3 +3 холодно 1029.1 1019.8
00 26.04 ЮЗ 3 8000 м ясно +3.9 +2.2 89 0 0 холодно 1029.5 1020.1
03 26.04 Ю 1 5000 м дымка ясно +3.5 +2.4 92 +2 +2 холодно 1030.4 1021.0 +2.9
06 26.04 ЮВ 2 10 км 3/0
[Ci fib]
+10.1 +5.6 74 +9 +16 по сезону 1031.0 1021.8
09 26.04 ЮВ 5 10 км 3/3 1000 м
[Sc]
+13.9 +0.7 40 +12 +18 по сезону 1030.3 1021.2
12 26.04 ЮВ 4 10 км ясно +15.4 -0.2 34 +15 +22 по сезону 1028.6 1019.6
15 26.04 ЮВ 3 10 км ясно +15.6 +1.1 37 +15 +16 по сезону 1027.4 1018.4 +16.1
18 26.04 В 4 8000 м ясно +10.9 +2.1 55 +9 +9 по сезону 1027.4 1018.3
21 26.04 В 4 8000 м ясно +7.7 +3.3 74 +4 +4 холодно 1027.1 1017.9
00 27.04 В 5 8000 м ясно +6.9 +1.6 69 +3 +3 прохладно 1026.9 1017.6
03 27.04 В 5 10 км ясно +6.0 +1.5 73 +2 +2 холодно 1026.9 1017.6 +5.3
06 27.04 В 8-10
{10}
10 км ясно +10.8 +3.7 61 +7 +9 прохладно 1026.6 1017.5
09 27.04 В 8-10
{11}
10 км ясно +17.1 +3.6 41 +16 +19 тепло 1025.3 1016.4
12 27.04 В 7-10
{12}
10 км ясно +20.0 +5.4 38 +20 +23 тепло 1023.9 1015.1
15 27.04 В 6
{10}
10 км ясно +18.8 +5.4 41 +19 +19 тепло 1023.1 1014.3 +20.2
18 27.04 В 5
{10}
8000 м дым 3/0
[Ac trans]
+13.2 +3.7 52 +11 +11 по сезону 1023.9 1014.9
21 27.04 В 5 7000 м дым 3/0
[Ac trans]
+10.6 +3.8 63 +8 +8 по сезону 1024.0 1014.9
00 28.04 В 5 4000 м 3/0
[Ac trans]
+8.0 +3.8 75 +4 +4 прохладно 1023.2 1014.0
03 28.04 В 5 10 км ясно +7.6 +3.0 73 +4 +4 холодно 1022.9 1013.7 +6.3
06 28.04 В 6 10 км ясно +11.7 +4.8 63 +9 +12 прохладно 1022.0 1013.0
09 28.04 В 6
{10}
10 км ясно +16.1 +6.9 54 +15 +21 по сезону 1020.7 1011.8
12 28.04 В 5
{10}
10 км 3/3 600 м
[Cu med, cong]
+18.8 +7.7 48 +19 +23 тепло 1019.3 1010.5
15 28.04 В 2 10 км ясно +19.3 +8.5 50 +21 +22 комфорт 1018.3 1009.5 +20.0
18 28.04 штиль 0 5000 м дым ясно +15.0 +7.9 62 +15 +15 тепло 1018.3 1009.4
21 28.04 СВ 2 8000 м ясно +11.5 +6.8 73 +10 +10 по сезону 1017.9 1008.9
00 29.04 СВ 2 8000 м ясно +8.6 +5.7 82 +7 +7 по сезону 1018.0 1008.9
03 29.04 В 4 10 км ясно +8.3 +4.9 79 +5 +5 прохладно 1018.3 1009.2 +6.3
06 29.04 В 2 7000 м дым ясно +14.7 +8.0 64 +14 +23 тепло 1018.6 1009.7
09 29.04 В 3 10 км ясно +19.5 +9.7 53 +21 +34 комфорт 1018.3 1009.5
12 29.04 В 2 10 км ясно +21.1 +8.8 45 +22 +33 комфорт 1017.7 1009.0
15 29.04 В 3 10 км ясно +20.9 +7.5 42 +22 +24 комфорт 1017.0 1008.3 +21.6
18 29.04 СВ 3 8000 м дым ясно +16.2 +8.1 59 +16 +16 тепло 1017.9 1009.0
21 29.04 СВ 3 8000 м ясно +11.9 +7.3 73 +10 +10 по сезону 1017.7 1008.7
00 30.04 В 6 8000 м ясно +11.2 +6.6 73 +8 +8 по сезону 1017.7 1008.7

 

Местоположение метеостанции Ростов-на-Дону (Ростовская область, Россия): широта 47.27 долгота 39.82 высота над уровнем моря 75 м.

В архиве по умолчанию представлена погода в Ростове-на-Дону за последнюю неделю. Архивные данные за месяц целиком и за предыдущие месяцы, начиная с января 2011 года, Вы можете получить, выбрав интересующий диапазон дат из раскрывающегося списка и нажав кнопку "Ввод!".

Внимание! Время в таблицах - всемирное. Для получения местного времени необходимо прибавить поправку, которая в Ростове-на-Дону равна 3 ч.

Смотрите также архив погоды в соседних городах и на ближайших метеорологических станциях:

Погода в Шахтах (Ростовская область, Россия) (59 км)
Погода в Зерноград (Ростовская область, Россия) (60 км)
Погода в Таганроге (Ростовская область, Россия) (70 км)
Погода в Матвеевом Кургане (Ростовская область, Россия) (78 км)
Погода в Семикаракорске (Ростовская область, Россия) (81 км)
Погода в Маргаритово (Ростовская область, Россия) (81 км)
Погода в Кущевской (Краснодарский край, Россия) (84 км)
Погода в Константиновске (Ростовская область, Россия) (102 км)
Погода в Староминская (Краснодарский край, Россия) (102 км)
Погода в Каменск-Шахтинском (Ростовская область, Россия) (120 км)

Пояснения к столбцам:

Ветер - указаны скорость ветра в м/с - средняя за 10 мин, порывы в срок и между сроками (в фигурных скобках) и направление, откуда дует ветер: С - северный, СВ - северо-восточный, В - восточный, ЮВ - юго-восточный, Ю - южный, ЮЗ - юго-западный, З - западный, СЗ - северо-западный.
Видимость - горизонтальная дальность видимости в метрах или километрах. При видимости от 1 до 10 км при отсутствии осадков обычно наблюдается дымка, при ухудшении видимости до 1 км и менее - туман. В сухую погоду видимость может ухудшаться дымом, пылью или мглою.
Явления - указаны атмосферные явления, наблюдавшиеся в срок или в последний час перед сроком; фигурными скобками обозначены явления, наблюдавшиеся между сроками (за 1-3 часа до срока); квадратными скобками обозначены град или гололедные отложения с указанием их диаметра в мм.
Облачность - указаны через наклонную черту общая и нижняя облачность в баллах и высота нижней границы облаков в метрах; квадратными скобками обозначены формы облаков: Ci - перистые, Cs - перисто-слоистые, Cc - перисто-кучевые, Ac - высококучевые, As - высокослоистые, Sc - слоисто-кучевые, Ns - слоисто-дождевые, Cu - кучевые, Cb - кучево-дождевые. Подробнее классификацию облаков см. в Атласе облаков (PDF).
T - Температура воздуха - температура, измеренная на высоте 2 м над землей.
Td - Температура точки росы - температура, при понижении до которой содержащийся в воздухе водяной пар достигнет насыщения.
f - Относительная влажность воздуха - влажноcть воздуха, измеренная на высоте 2 м над землей.
Te - Эффективная температура - температура, которую ощущает одетый по сезону человек в тени. Характеристика душности погоды. При расчете учитывается влияние влажности воздуха и скорости ветра на теплоощущения человека.
Tes - Эффективная температура на солнце - температура, которую ощущает человек, с поправкой на солнечный нагрев. Характеристика знойности погоды. Зависит от высоты солнца над горизонтом, облачности и скорости ветра. Ночью, в пасмурную погоду, а также при ветре 12 м/с и более поправка равна нулю.
P - Атмосферное давление - приведенное к уровню моря атмосферное давление.
Po - Атмосферное давление - измеренное на уровне метеостанции атмосферное давление.
Tmin - Минимальная температура - минимум температуры воздуха на высоте 2 м над землей.
Tmax - Максимальная температура - максимум температуры воздуха на высоте 2 м над землей.
R - Количество осадков - Количество выпавших осадков за период времени, мм. При наведении курсора мыши на число - период времени, за который выпало указанное количество осадков.
R24 - Количество осадков - Количество выпавших осадков за 24 часа, мм.
S - Снежный покров - Высота снежного покрова, см. При наведении курсора мыши на число - состояние снежного покрова и степень покрытия местности в баллах.